Regional Weather Roundup
Issued by NWS Portland, ME

Current Version | Previous Version | Text Only | Print | Product List | Glossary Off
Versions: 1 2 3 4 5 6 7 8 9 10 11 12 13 14 15 16 17 18 19 20 21 22 23 24 25 26 27 28 29 30 31 32 33 34 35 36 37 38 39 40 41 42 43 44 45 46 47 48 49 50
000 ASUS41 KGYX 181410 RWRGYX WEATHER ROUNDUP FOR MAINE AND NEW HAMPSHIRE NATIONAL WEATHER SERVICE GRAY ME 900 AM EST SAT NOV 18 2017 MEZ002-005-006-010-012-015-018-020-021-024-026-027-029-181500- MAINE CITY SKY/WX TMP DP RH WIND PRES REMARKS PORTLAND MOSUNNY 31 16 54 SW3 29.95S SANFORD N/A 34 19 54 SW5 29.94S WISCASSET SUNNY 32 13 45 CALM 29.96S ROCKLAND SUNNY 31 17 56 W9 29.92F FRYEBURG CLOUDY 26 24 92 CALM 29.91F LEWISTONAUBURN CLOUDY 31 17 56 VRB6 29.93R AUGUSTA SUNNY 32 12 43 CALM 29.92F WATERVILLE PTSUNNY 29 16 58 CALM 29.88S BANGOR MOSUNNY 30 15 53 NW8 29.91F GREENVILLE NOT AVBL MILLINOCKET PTSUNNY 27 16 63 NW5 29.90F HOULTON CLOUDY 25 17 72 NW7 29.86S PRESQUE ISLE CLOUDY 24 16 71 NW14 29.89R WCI 12 FRENCHVILLE CLOUDY 19 13 77 NW8 29.83R CARIBOU CLOUDY 24 15 68 VRB5 29.86R $$ NHZ002-005-008-009-011-012-014-181500- NEW HAMPSHIRE CITY SKY/WX TMP DP RH WIND PRES REMARKS PORTSMOUTH PTSUNNY 34 14 43 W3 29.93F ROCHESTER SUNNY 32 14 47 CALM 29.93S NASHUA CLOUDY 31 20 63 CALM 29.94F MANCHESTER CLOUDY 30 18 60 CALM 29.92F CONCORD CLOUDY 31 17 56 CALM 29.93F LACONIA CLOUDY 30 14 51 SW8 29.93 PLYMOUTH FAIR 26 16 64 CALM 29.93S BERLIN CLOUDY 20 16 84 CALM 29.88F WHITEFIELD CLOUDY 19 16 88 CALM 29.86F JAFFREY CLOUDY 31 17 56 CALM 29.90F KEENE FLURRIES 27 25 92 NW7 29.93F LEBANON CLOUDY 25 19 78 CALM 29.91F MT WASHINGTON PTSUNNY 28 1 31 W12 N/A WCI 18 $$ VTZ005-007-008-181500- VERMONT CITY SKY/WX TMP DP RH WIND PRES REMARKS ST JOHNSBURY N/A 20 17 88 MISG 29.88F MONTPELIER CLOUDY 22 18 85 SE5 29.89F BURLINGTON CLOUDY 31 16 54 S8 29.83F $$ MAZ007-012-024-CTZ003-RIZ002-NYZ038-NYZ072-181500- SOUTHERN NEW ENGLAND AND NY CITY SKY/WX TMP DP RH WIND PRES REMARKS BOSTON MOSUNNY 37 19 48 S5 29.95F WORCESTER CLOUDY 33 11 39 SW6 29.90F NANTUCKET SUNNY 46 28 49 NW3 29.97F PROVIDENCE CLOUDY 36 21 54 VRB3 29.97F HARTFORD CLOUDY 28 22 78 CALM 29.95F ALBANY CLOUDY 29 20 69 SW3 29.89F NEW YORK CITY CLOUDY 43 26 51 CALM 29.95F $$ ANZ081-ANZ082-ANZ150-NHZ014-MEZ023>029-181500- COASTAL MARINE OBSERVATIONS STATION/POSITION TIME TEMP WIND PRES WAVE AIR SEA DIR/SP/G HT/PER (UTC) (F) (DEG/KT/KT) (MB) (FT/S) MOUNT DESERT ROC 1400 34 300/ 13/ 14 1013.4R MATINICUS ROCK 1400 34 310/ 10/ 11 1012.9F ISLE OF SHOALS 1400 35 280/ 6/ 8 1013.9F JEFFREYS LEDGE 1336 52 N/A 2/ 3 GEORGES BANK BUO 1250 48 53 1013.4 9/ 9 $$ .............KEY.............. WCI - WIND CHILL TC - TEMPERATURE IN CELSIUS VSB - VISIBILITY IN MILES HX - HEAT INDEX FAIR- INDICATES FEW OR NO CLOUDS BELOW 12,000 FT, WITH NO SIGNIFICANT WEATHER AND/OR OBSTRUCTIONS TO VISIBILITY.

USA.gov is the U.S. government's official web portal to all federal, state and local government web resources and services.